Wind_Speed
7 6 4 3 4 4 3 3 3 3 3 4 5 6 5 6 5 4 5 4 4 3 1 2 2 3 3 2 4 6 7 9 10 11 14 14 12 13 13 11 11 10 8 6 5 5 5 4 4 4 4 4 4 4 5 5 5 6 6 6 7 7 7 6 6 6 6 6 6 5 4 5 7 9 9 10 12 13 14 14 15 13 12 11 10 10
6 5 6 5 5 3 2 1 1 3 4 5 6 6 7 7 5 5 7 7 6 5 1 0 1 1 1 2 3 4 5 7 8 8 11 13 12 11 12 12 13 13 12 10 7 5 5 5 4 4 4 4 3 3 4 4 4 5 5 5 6 7 7 6 5 5 5 6 6 5 5 6 7 9 9 10 11 12 13 14 15 14 13 11 10 10
5 7 7 4 3 2 2 2 3 4 5 7 8 8 8 6 3 5 8 8 7 6 4 3 3 1 1 3 4 3 3 4 6 6 8 11 12 10 10 11 12 13 14 13 11 7 5 5 5 4 4 4 3 3 3 4 4 5 5 5 5 6 6 6 5 4 4 4 5 4 5 6 7 8 10 10 11 12 13 14 15 15 14 13 11 10
4 6 6 4 4 5 5 6 7 6 7 8 9 10 8 5 4 4 5 6 7 6 5 4 6 5 4 6 6 4 3 3 4 5 6 9 11 10 10 10 11 12 14 14 15 11 7 4 4 4 5 5 4 3 3 4 4 5 6 6 5 5 6 6 5 4 3 3 4 4 4 5 6 8 10 10 10 11 12 13 14 15 15 14 12 11
3 6 7 5 3 3 5 6 6 7 8 8 8 7 5 5 6 5 4 4 5 7 6 4 7 7 6 8 6 6 6 5 4 4 5 7 9 9 9 10 11 12 13 14 15 15 11 6 4 4 4 4 4 4 4 4 5 5 6 6 7 6 6 6 5 5 4 3 3 4 4 4 5 6 8 9 9 10 11 11 12 13 14 14 13 11
1 5 6 5 3 1 2 3 4 7 9 8 6 4 3 5 8 7 5 3 4 8 8 6 5 5 7 10 7 7 9 7 6 5 5 5 7 8 9 10 11 12 12 13 14 16 14 9 5 4 4 3 4 4 4 5 5 6 6 6 7 7 7 7 6 5 4 4 4 5 5 5 5 6 7 8 8 9 9 9 10 11 12 13 13 12
1 1 3 4 4 3 3 3 0 5 8 9 5 3 4 6 9 10 8 6 5 6 7 8 7 4 9 11 9 8 9 8 8 7 6 5 6 6 7 9 10 11 11 12 13 15 15 12 8 5 4 3 3 4 4 5 6 6 6 6 6 7 7 7 6 6 5 5 5 6 7 7 7 7 7 7 8 8 9 9 9 9 10 11 11 12
2 2 1 2 1 1 2 5 3 0 4 7 3 3 2 2 5 7 10 10 7 4 4 9 12 7 9 9 8 9 9 9 7 7 7 7 6 6 6 8 8 9 10 10 12 15 15 13 10 7 5 4 3 3 3 4 5 5 6 6 6 6 7 6 6 6 6 6 6 7 8 8 8 9 8 8 8 8 8 9 9 9 9 10 10 11
2 3 2 0 1 0 1 5 4 4 1 4 2 3 2 2 3 4 7 11 10 7 5 10 12 7 8 7 7 8 9 10 9 8 8 8 7 6 7 7 8 8 9 10 11 14 14 14 12 9 6 5 4 3 3 3 4 5 5 6 6 6 7 6 5 5 6 6 6 7 8 8 9 9 9 9 9 9 9 9 9 9 10 11 10 9
3 4 2 3 2 0 2 5 4 3 2 1 3 4 5 7 5 3 6 11 10 7 7 9 12 7 6 7 5 6 8 10 10 11 10 10 9 8 9 8 8 8 8 9 11 13 14 14 13 11 8 6 5 3 3 3 3 4 4 5 6 6 6 7 6 6 6 6 7 7 7 8 8 9 9 9 9 9 9 9 9 10 10 11 11 10
2 3 3 4 3 2 5 5 4 4 4 3 5 5 5 5 2 2 7 12 8 4 6 7 12 10 2 5 5 5 7 10 10 12 12 11 11 11 11 12 11 10 9 9 10 12 13 13 13 12 9 7 6 4 3 3 3 4 4 5 5 6 6 7 7 7 7 7 7 7 7 7 8 9 9 9 9 10 9 9 9 10 10 11 12 11
2 3 3 2 1 5 6 4 2 4 5 3 4 3 1 1 4 5 7 9 5 2 5 3 10 12 6 3 4 4 6 9 9 10 10 10 11 11 12 13 13 12 11 10 10 11 12 13 12 11 10 8 7 5 4 3 3 3 4 4 4 5 6 6 7 7 7 7 7 7 7 7 8 8 9 9 9 9 9 8 8 9 10 10 11 10
3 4 3 1 3 7 6 2 1 3 4 3 2 1 1 2 3 2 2 4 3 2 3 4 11 10 8 5 1 3 4 7 7 7 8 9 10 10 11 12 13 13 12 10 10 11 12 12 11 11 10 9 8 6 5 4 3 2 2 3 3 4 4 5 6 6 7 7 7 7 7 8 8 8 8 8 9 9 9 9 8 9 9 9 9 10
3 3 1 1 4 6 5 3 1 1 2 3 2 2 1 2 3 1 2 2 2 1 3 8 12 5 5 3 3 2 3 6 6 7 8 8 9 10 11 11 13 14 13 11 10 10 11 11 10 10 10 10 9 8 7 6 4 3 2 2 2 2 3 4 5 6 6 7 7 7 7 8 8 8 8 8 9 9 9 9 9 9 9 8 8 9
2 1 1 1 3 6 4 2 2 1 1 1 1 3 2 3 2 2 2 1 1 1 4 7 7 2 2 4 6 2 2 5 7 8 8 9 10 10 11 11 12 15 15 13 10 10 10 10 9 9 9 10 10 9 9 8 6 5 4 3 2 2 2 3 4 5 6 6 7 7 8 8 8 8 8 8 9 9 9 9 9 10 10 9 8 9
4 3 1 2 2 3 2 1 1 1 1 1 1 2 2 2 2 3 2 1 2 1 2 3 4 4 4 5 6 3 3 4 7 8 8 9 11 11 11 10 11 14 16 13 10 9 9 9 9 8 8 9 9 9 9 8 8 7 6 4 3 2 2 2 3 4 5 6 6 7 7 8 8 8 8 9 9 9 9 9 9 9 9 9 8 8
6 4 3 3 2 3 4 3 2 2 2 2 2 1 3 2 3 3 3 3 3 2 1 1 3 4 4 4 7 5 3 4 6 8 8 10 12 12 12 10 10 13 15 13 10 9 9 8 8 7 7 7 7 8 8 8 8 7 7 6 5 4 3 3 3 3 4 5 6 7 7 8 8 8 8 8 8 9 9 9 9 8 8 8 8 8
6 4 5 4 1 1 2 3 3 2 3 3 1 1 1 1 2 2 2 3 3 2 1 2 3 4 5 2 5 5 2 4 6 7 7 10 12 14 13 11 10 12 14 13 10 9 8 7 8 7 6 6 7 7 7 7 7 7 7 7 6 6 5 4 4 3 4 4 5 6 7 7 8 8 8 8 8 8 9 10 10 9 8 8 9 8
7 5 5 5 3 2 2 1 2 1 2 3 2 2 3 1 1 2 2 1 1 1 2 3 3 5 7 6 4 3 1 3 4 5 6 8 11 13 13 11 10 11 13 14 11 9 8 7 7 6 5 6 6 7 8 8 7 7 7 7 7 6 6 6 5 5 5 6 6 6 7 7 7 8 8 8 8 8 9 9 10 10 9 9 9 9
7 6 4 5 5 4 4 2 1 2 3 4 3 3 4 2 1 1 2 2 2 1 1 3 3 4 8 8 4 2 1 2 3 4 5 7 9 12 12 11 10 11 13 15 14 10 8 7 7 6 6 6 6 7 8 8 8 8 8 7 7 7 7 7 7 7 7 7 7 8 8 8 8 8 8 8 8 8 8 9 10 10 10 10 9 9
6 6 4 5 6 4 4 2 1 3 3 3 3 3 3 1 1 3 3 2 2 2 2 1 2 5 5 4 3 3 2 2 2 4 5 6 8 10 10 10 10 10 13 16 15 11 8 7 7 6 5 6 6 7 8 9 9 8 8 8 7 7 8 8 8 8 8 8 8 9 9 9 9 9 10 9 9 9 9 9 10 11 11 11 10 9
4 5 6 5 5 5 3 2 1 3 4 2 0 0 1 1 2 3 2 1 1 1 2 2 2 5 5 6 4 3 2 1 2 3 4 4 5 8 9 8 8 9 12 16 15 12 9 7 7 6 4 5 6 7 8 9 9 9 10 9 9 9 8 8 9 9 9 9 9 9 10 10 11 11 11 11 11 11 11 11 11 11 11 11 11 9
5 5 6 5 6 5 4 3 4 4 3 2 2 3 4 4 3 4 2 1 0 1 2 3 2 4 6 8 4 2 3 4 4 4 3 2 2 7 9 7 7 9 11 14 15 12 9 8 7 6 5 6 7 8 8 9 9 10 10 11 11 11 10 10 10 10 10 10 10 10 10 11 11 12 12 12 12 12 12 11 11 11 11 11 11 11
6 6 8 8 7 6 6 5 4 3 2 0 2 3 4 4 5 5 3 2 1 2 3 2 1 5 7 8 5 4 5 6 6 6 4 1 1 5 8 7 7 8 10 12 13 12 9 8 7 6 6 8 8 9 9 9 10 11 11 11 11 11 11 10 11 11 11 11 10 10 11 11 11 12 12 13 12 12 12 11 12 12 12 12 12 11
6 6 9 10 7 4 3 3 3 2 2 2 0 4 4 5 7 7 4 3 3 4 5 3 2 5 6 8 8 7 8 8 8 8 6 3 3 4 6 6 6 6 8 10 11 11 10 8 7 7 7 9 10 10 10 10 10 11 11 10 10 10 10 9 10 10 10 10 10 10 10 11 11 12 12 13 13 13 13 12 13 13 13 13 13 12
6 7 10 10 7 5 4 3 4 5 4 3 2 2 4 5 7 7 4 5 5 4 5 4 4 5 6 9 9 8 9 10 11 11 9 6 4 3 5 5 5 5 6 8 9 10 10 8 7 8 9 10 10 11 11 10 10 10 10 10 10 10 10 10 10 10 10 11 11 11 11 12 12 12 12 12 13 13 13 13 14 14 14 14 14 13
6 7 10 12 11 10 9 6 6 7 6 4 4 4 3 4 6 6 5 5 5 4 5 4 5 6 7 8 7 7 9 12 13 13 10 5 4 3 4 5 6 5 6 7 8 9 9 8 8 9 10 10 10 11 10 9 9 9 9 10 10 11 11 12 12 13 13 13 13 13 13 13 13 13 12 12 13 13 13 13 13 14 14 14 13 12
6 7 8 9 9 9 8 7 7 8 7 6 6 6 5 4 5 5 6 6 5 5 4 3 5 5 4 6 9 10 12 14 14 11 7 5 4 3 3 5 6 6 6 6 7 8 8 7 8 9 10 10 10 10 9 8 7 7 8 9 10 11 11 12 13 14 15 15 15 16 15 15 15 14 14 14 14 13 13 13 13 13 13 12 11 11
3 6 7 7 6 7 8 7 7 7 7 8 8 8 6 6 6 6 6 7 7 6 5 6 7 6 4 6 8 9 10 10 9 7 6 6 4 4 4 5 6 6 6 5 5 7 7 6 7 8 9 10 10 10 9 7 6 6 7 8 9 10 11 12 12 13 15 16 17 17 18 18 17 17 17 16 15 15 14 14 14 14 12 11 9 10
0 3 6 7 7 7 7 8 8 8 8 9 9 9 8 9 9 8 8 9 9 9 8 8 8 7 6 8 8 8 8 6 4 4 6 5 4 4 5 6 7 7 6 4 3 5 5 5 6 7 8 9 9 9 8 6 5 6 7 8 9 10 12 13 13 14 15 16 17 17 18 19 19 20 19 18 17 16 15 15 14 14 13 11 10 9
0 0 2 5 7 8 8 9 9 9 10 10 9 9 9 11 11 11 10 10 10 9 8 8 9 8 8 9 9 8 7 4 2 4 6 6 5 4 6 7 8 8 5 3 2 2 3 4 5 6 7 8 8 9 8 7 6 6 6 8 9 11 13 14 15 17 17 18 18 18 18 19 20 20 21 20 19 18 17 16 15 14 13 13 12 11
1 0 0 2 4 7 8 10 11 12 13 13 13 12 11 12 12 12 10 10 9 9 9 9 9 9 9 10 8 7 6 5 3 4 5 6 7 7 8 8 7 6 3 2 2 0 2 4 5 6 7 8 9 9 9 8 7 7 7 8 11 13 14 15 16 18 19 20 19 18 19 19 20 21 21 22 21 20 19 19 17 15 13 13 13 12
4 3 2 2 3 4 5 7 10 11 11 12 13 13 12 11 11 11 11 10 9 9 10 9 8 8 10 10 7 5 5 6 5 4 3 2 4 5 6 5 4 3 2 2 1 1 3 5 7 8 9 10 10 10 10 10 9 9 9 11 13 15 17 18 18 19 20 21 20 19 19 20 20 21 22 22 23 22 20 19 19 18 16 14 13 13
6 5 5 4 4 4 4 6 7 7 7 8 9 10 9 9 9 10 11 10 9 10 10 9 8 8 11 11 7 4 4 4 4 3 2 0 2 2 3 3 2 3 3 3 3 3 5 7 9 9 10 10 10 10 11 11 12 11 12 13 15 17 19 20 20 20 21 21 20 19 20 21 22 21 22 23 23 24 23 21 20 19 19 18 17 16
7 7 7 8 8 8 7 6 4 4 4 5 6 7 8 9 10 11 12 12 11 11 11 9 8 8 10 11 8 5 3 1 2 3 3 2 3 4 5 6 7 7 6 6 6 7 8 10 11 11 10 11 11 11 10 11 12 13 14 16 17 19 20 21 21 21 22 21 20 20 22 23 23 23 23 24 24 25 25 24 22 20 19 20 20 19
8 8 9 10 10 10 8 5 4 5 8 9 10 10 9 9 11 13 15 14 12 12 11 9 8 9 10 10 8 5 3 3 3 4 5 5 6 6 8 9 10 10 9 9 9 10 11 13 13 13 13 12 12 12 11 11 13 14 15 17 18 19 20 21 22 23 23 23 22 22 24 25 26 26 25 25 25 26 26 26 26 24 22 21 21 21
11 11 11 11 11 10 9 10 11 13 15 15 13 10 8 8 10 12 13 12 11 11 11 9 9 9 10 10 7 5 4 4 6 6 6 7 8 9 10 11 11 11 11 11 11 12 14 15 15 15 14 14 14 14 13 13 14 16 17 18 19 20 22 23 24 25 26 26 24 23 24 25 26 27 27 27 28 27 27 27 28 27 25 24 24 23
15 15 14 13 13 13 13 11 9 8 11 13 11 7 7 8 9 10 13 14 13 12 11 10 9 9 8 7 6 5 6 6 7 8 8 8 11 12 12 13 13 13 13 13 13 14 16 17 17 17 17 17 17 17 16 16 17 18 20 20 22 23 25 27 28 29 29 29 28 28 27 27 27 27 28 28 29 29 28 29 29 28 28 27 27 27
17 17 16 15 15 16 16 12 8 9 11 11 7 5 8 9 8 8 12 15 12 10 10 11 9 7 6 5 5 6 6 7 9 9 9 11 14 15 15 15 15 15 15 15 16 17 18 19 20 20 20 20 20 20 20 20 21 22 24 25 26 27 28 30 31 32 32 32 32 32 32 32 32 31 31 31 31 30 30 30 30 30 30 30 30 29
18 18 18 18 19 20 20 17 15 16 15 11 8 9 11 11 8 6 8 11 11 8 7 8 6 5 4 5 6 6 7 8 10 11 12 13 15 16 17 17 16 16 16 17 18 18 19 21 22 23 23 23 23 23 23 24 25 26 27 28 29 30 32 33 34 35 35 35 34 34 33 34 34 34 34 34 34 33 33 33 33 32 32 32 32 31
18 18 17 18 20 22 23 21 20 21 19 14 12 13 13 10 9 9 10 12 12 10 7 6 6 5 5 6 6 8 9 10 11 12 13 15 16 17 18 17 16 16 17 17 18 19 20 21 23 25 25 26 26 26 27 27 28 28 28 29 30 32 34 35 36 36 37 36 36 36 35 35 35 35 35 36 36 35 35 35 34 33 32 33 33 33
18 18 18 19 20 21 23 23 20 21 20 16 14 15 14 13 14 14 14 13 12 10 9 7 7 7 6 7 8 9 11 12 12 13 14 15 16 17 17 16 16 16 16 17 18 19 20 22 24 25 26 27 28 29 29 29 30 30 30 31 33 34 35 37 38 38 39 39 39 38 38 37 36 36 36 36 37 36 36 36 34 33 32 32 33 34
19 18 18 19 19 18 18 18 14 14 16 15 13 15 16 16 16 15 15 14 13 13 11 11 10 8 8 9 9 10 12 13 13 14 15 16 17 18 17 17 16 17 17 18 19 21 22 23 23 24 25 27 28 30 31 31 32 32 33 33 34 35 36 37 38 40 40 40 40 40 40 38 37 36 35 36 37 36 35 35 33 31 30 31 33 34
20 19 19 19 18 17 16 16 14 15 16 14 13 14 14 14 15 15 15 16 16 15 15 13 11 9 10 10 11 12 14 14 15 16 17 18 18 19 19 18 18 18 19 20 22 23 24 24 24 25 27 28 29 30 32 32 33 33 33 33 35 36 38 39 40 42 42 42 43 43 42 39 36 34 34 36 38 37 37 36 34 31 30 31 33 34
20 21 21 20 19 18 18 17 16 16 16 15 15 14 14 14 15 15 15 15 15 15 15 13 11 10 11 12 13 14 15 16 17 18 19 19 20 20 20 19 20 21 22 23 24 26 26 27 28 29 30 30 30 30 31 32 32 33 34 36 38 40 41 43 44 45 47 47 46 45 44 41 36 33 33 35 37 39 38 37 34 32 33 34 34 35
18 19 20 21 21 21 22 22 21 19 18 17 17 16 16 16 16 16 15 15 14 14 14 13 12 12 12 14 15 16 17 18 20 20 20 20 21 21 22 22 22 24 25 26 27 27 28 30 31 31 31 30 30 30 31 33 34 36 38 40 41 42 44 47 48 48 47 46 43 40 41 40 35 31 32 33 35 37 37 35 34 34 34 35 35 36
17 18 18 19 20 20 19 19 20 20 19 19 19 18 18 17 16 16 15 14 14 14 14 14 14 14 15 16 16 18 19 20 21 21 22 22 22 23 24 24 25 26 27 28 29 30 31 32 33 32 31 31 31 33 34 35 37 39 41 43 44 47 50 51 50 46 41 37 36 36 36 36 33 31 31 32 33 34 35 34 34 34 34 33 34 34
14 15 16 16 17 17 16 16 16 16 17 18 18 17 17 17 17 17 16 15 15 15 15 15 14 15 16 17 18 19 21 22 22 22 22 23 24 25 26 27 28 28 28 29 31 32 33 33 33 32 33 34 35 36 37 39 40 41 42 43 47 52 53 50 45 41 34 29 30 32 33 34 33 31 30 31 32 33 34 35 36 36 36 36 35 35
15 15 15 15 15 16 17 17 16 16 15 16 16 17 17 17 18 17 16 15 14 14 14 15 16 17 19 20 21 21 22 23 24 24 24 26 26 27 29 29 29 29 30 31 33 33 34 34 34 34 35 36 37 39 41 42 42 42 43 47 51 51 47 42 38 34 29 24 25 28 29 31 31 30 30 31 32 33 35 36 37 37 38 39 39 37
17 17 16 17 16 16 16 17 16 16 16 15 16 17 18 18 19 19 18 17 17 17 18 19 19 20 22 23 23 23 24 25 26 27 27 28 29 29 30 30 30 31 32 33 34 34 34 35 35 35 36 37 39 41 42 43 44 45 48 50 48 43 38 35 32 29 26 24 24 25 26 28 30 30 30 31 32 34 35 36 37 38 39 39 39 39
20 20 19 19 19 19 19 19 19 19 19 18 18 18 18 19 20 20 20 19 19 19 20 21 21 22 23 25 26 27 27 27 28 28 28 29 30 30 31 31 31 32 33 33 33 34 35 35 35 36 37 38 39 41 43 45 46 48 47 44 40 36 33 31 28 26 26 26 26 27 27 29 30 31 32 34 35 36 37 37 36 37 37 35 36 37
Wind_Direction
337 351 35 63 55 45 23 14 7 328 311 314 306 302 298 283 286 302 304 306 306 296 70 83 76 69 62 27 10 31 47 49 49 47 46 49 47 43 45 54 54 42 30 15 357 347 343 337 332 337 337 328 326 339 348 348 343 343 346 350 354 356 360 358 354 355 2 17 36 51 46 25 11 6 7 10 6 7 13 15 16 19 19 15 13 14
341 13 56 60 47 50 42 48 270 276 274 279 287 292 289 285 292 291 287 291 291 285 274 325 300 71 70 322 351 33 49 45 47 47 46 49 50 50 54 58 57 50 45 37 24 5 356 347 336 334 332 327 330 339 346 346 342 344 348 349 351 354 359 4 4 2 6 17 31 42 41 27 17 11 10 11 7 7 12 14 15 19 21 20 18 16
358 33 52 35 7 356 326 302 295 287 254 249 261 273 277 275 272 268 271 275 275 273 260 266 291 311 313 314 337 20 42 28 33 46 50 50 52 58 63 61 56 51 48 42 35 22 7 357 345 336 329 326 332 335 343 347 342 341 341 343 350 356 358 2 6 7 9 20 30 37 36 29 24 20 16 14 10 8 11 13 13 18 22 22 22 21
354 29 29 355 330 316 303 296 296 275 236 232 238 253 264 251 244 256 267 264 255 256 257 262 277 279 309 329 332 334 331 341 3 30 53 52 48 56 67 65 59 54 49 42 35 29 20 6 350 338 327 327 334 336 341 348 343 337 335 336 344 354 359 0 1 3 6 18 27 27 25 24 24 22 19 15 11 9 10 11 12 17 22 23 24 24
0 35 20 359 342 312 301 295 282 242 219 224 224 233 248 247 253 263 278 273 243 241 244 260 275 279 316 339 334 319 322 331 337 3 45 52 44 52 68 68 61 55 49 40 32 28 26 18 355 340 328 330 340 345 346 346 342 337 337 337 339 345 355 359 358 358 355 357 7 7 3 10 13 11 11 11 12 10 8 9 11 15 21 24 25 26
40 53 27 18 45 48 336 313 263 218 215 228 233 233 235 255 265 260 261 266 226 228 234 243 270 304 335 341 339 325 331 333 322 338 16 36 36 49 68 69 60 52 45 38 30 26 26 22 8 345 330 331 345 353 350 345 342 338 340 342 342 342 346 352 354 355 352 345 347 351 354 0 359 356 357 2 9 11 7 4 7 10 14 20 23 25
202 59 39 42 63 96 68 32 196 211 228 240 267 288 245 257 265 254 253 254 224 226 237 230 232 290 329 337 350 346 345 340 327 335 351 7 22 40 63 67 59 49 42 36 27 23 24 22 14 354 335 329 340 354 345 338 341 340 342 343 345 347 348 349 350 352 354 349 346 347 352 357 356 353 352 354 2 8 3 358 358 0 1 5 12 17
260 263 141 90 37 152 75 41 54 61 251 241 280 344 232 248 275 260 257 255 246 253 252 225 225 263 313 333 2 2 4 9 1 355 353 1 14 29 52 60 56 49 39 33 25 20 22 21 15 4 346 335 328 339 329 323 333 339 342 339 339 347 350 349 347 350 353 352 348 345 348 352 351 352 353 352 356 3 2 353 349 352 351 350 354 2
275 228 198 271 317 220 0 6 23 35 11 213 263 341 341 347 336 302 267 250 240 243 247 226 220 242 296 316 1 11 20 33 38 34 20 18 25 32 45 51 50 47 37 30 23 17 18 18 14 7 357 348 332 316 305 304 320 331 337 336 334 338 342 344 342 344 348 348 348 344 346 349 347 349 352 351 353 0 1 351 347 352 351 345 346 351
240 203 229 280 280 43 350 350 12 33 34 216 277 307 322 327 326 319 257 236 225 233 263 244 215 215 293 318 6 23 31 47 52 50 46 43 46 46 47 49 47 43 34 28 21 15 14 13 11 8 3 359 347 326 306 298 307 321 326 329 332 332 331 335 335 338 344 347 348 346 347 348 346 347 350 350 351 356 0 353 347 355 357 349 346 351
190 197 230 248 257 326 343 358 25 6 338 304 291 290 313 333 12 117 209 218 214 251 300 267 213 204 276 6 44 47 45 53 54 51 53 54 54 52 47 46 45 41 35 28 20 14 12 10 9 11 12 10 3 349 328 314 307 312 315 317 327 331 332 336 337 339 346 349 348 347 349 351 350 350 351 351 350 351 358 358 351 356 1 354 349 354
129 173 194 209 317 354 345 352 26 350 336 313 292 253 210 79 98 111 167 189 195 310 334 279 198 198 225 339 38 69 61 54 50 48 51 51 48 47 44 41 39 37 33 28 19 14 12 9 12 19 23 24 18 10 356 342 326 316 315 313 319 328 336 341 341 343 350 354 352 349 351 354 355 354 353 354 353 350 355 360 355 355 360 356 350 356
127 151 147 116 358 351 347 349 320 332 343 326 311 221 168 88 81 86 146 174 216 301 3 160 175 194 240 269 13 98 72 55 50 43 41 44 42 41 41 38 33 30 27 24 18 13 10 9 15 26 31 34 34 28 19 12 4 346 330 320 318 326 339 344 344 347 352 354 355 352 351 354 357 357 354 355 355 353 356 360 356 353 358 360 354 357
141 145 128 323 321 334 350 13 0 340 348 326 344 26 38 83 68 292 278 320 268 356 70 164 177 202 262 233 159 148 53 43 40 35 34 34 33 35 39 36 30 24 21 18 15 13 10 9 17 28 34 40 45 45 43 37 33 36 24 2 340 335 341 344 343 345 347 349 353 352 349 350 353 353 351 350 350 350 352 356 356 351 354 3 3 2
189 165 42 344 314 331 350 28 34 59 29 350 41 46 63 93 80 224 236 307 225 118 96 160 185 246 255 181 166 187 5 22 19 26 35 31 28 29 31 33 28 21 18 16 13 13 11 9 17 29 34 42 49 53 58 55 53 57 57 53 39 12 0 352 344 341 339 339 344 345 344 345 347 348 345 344 343 343 344 348 351 351 350 358 8 9
218 209 117 65 9 2 42 130 344 299 270 275 288 358 51 65 60 118 126 99 182 145 97 170 226 254 230 198 185 211 321 351 7 17 33 34 29 26 25 27 26 19 16 15 14 13 12 10 17 30 35 41 50 55 63 66 64 66 65 64 62 47 27 6 350 337 334 333 335 336 336 337 340 340 339 338 337 337 338 338 341 348 351 352 360 8
202 196 164 125 76 59 75 89 45 350 331 314 294 0 82 61 39 80 103 86 101 101 96 254 276 238 221 220 209 222 310 352 9 19 35 38 32 27 23 21 19 16 13 13 13 15 16 11 17 31 36 38 47 53 61 68 68 68 67 65 62 56 46 25 1 339 333 333 332 333 332 332 333 333 333 333 334 333 332 333 333 338 343 343 345 359
191 171 163 159 117 78 92 91 84 55 8 348 329 27 29 332 15 62 102 71 68 65 267 287 300 245 218 225 230 234 301 9 20 27 38 40 35 30 24 15 12 11 9 8 10 17 24 20 24 38 40 37 44 49 55 60 59 61 62 60 56 51 46 39 26 10 357 349 342 336 333 333 331 330 329 330 331 329 327 329 331 330 329 330 334 341
195 187 183 188 195 217 214 134 60 31 354 357 14 0 340 327 49 43 60 70 55 4 301 289 296 257 237 246 258 249 297 23 30 36 42 43 37 30 25 16 9 6 6 9 11 19 30 30 35 50 50 44 47 46 49 51 49 48 47 47 46 40 37 34 29 24 17 6 356 348 343 341 337 333 331 332 332 329 327 327 328 327 324 325 332 334
203 209 207 192 192 208 212 200 6 345 315 312 308 320 331 340 12 37 103 121 140 135 288 294 308 270 250 253 253 206 129 73 54 47 48 43 33 28 24 16 10 6 7 12 14 19 31 35 42 56 58 52 49 47 47 46 43 40 35 32 30 27 22 19 17 16 12 7 2 356 352 350 346 342 340 341 340 337 332 328 325 325 324 325 332 335
205 209 200 181 183 190 198 197 0 359 340 307 286 295 305 310 84 108 118 101 113 156 159 167 290 271 249 223 194 180 161 118 81 62 60 48 29 23 19 13 10 5 5 10 14 17 27 36 38 46 56 53 45 45 46 44 40 36 30 23 18 15 10 7 6 5 3 2 359 355 352 350 349 347 345 346 348 347 343 337 330 326 323 323 325 326
235 202 190 188 181 176 181 176 90 38 24 21 3 52 63 101 133 127 113 72 95 180 174 167 260 267 222 184 178 190 203 254 12 41 58 58 32 18 12 7 1 354 355 3 11 17 25 35 31 30 48 53 42 40 42 42 39 32 25 19 12 7 3 360 359 359 356 356 356 354 353 351 349 347 345 346 348 349 347 342 334 327 323 319 319 318
256 200 180 175 166 159 149 128 107 84 65 58 73 86 83 80 90 99 81 8 343 281 231 198 265 273 217 200 214 241 249 279 317 351 18 54 27 10 9 2 350 345 346 354 7 18 26 29 31 39 51 45 38 35 36 39 37 30 23 18 13 9 5 359 356 358 357 355 356 355 354 353 351 347 345 345 345 344 341 337 332 327 323 320 318 316
245 203 174 155 146 147 141 133 120 101 109 133 46 53 61 56 41 36 29 2 305 242 222 184 273 265 228 217 238 257 253 274 304 322 336 302 273 355 6 357 340 338 339 348 2 16 25 26 37 56 53 39 33 30 31 34 31 28 24 21 18 14 10 6 1 360 360 358 358 357 356 354 351 347 344 342 341 339 336 332 328 325 322 320 318 315
233 211 182 158 136 136 142 153 176 166 180 219 31 27 17 7 3 359 347 327 306 248 221 199 247 264 239 228 243 259 258 273 295 305 312 299 280 339 2 357 340 332 332 340 352 8 21 26 41 58 49 37 31 26 27 31 30 29 28 24 23 20 16 14 9 6 4 1 1 360 357 354 351 347 341 339 339 339 336 331 325 323 320 318 317 316
236 224 201 185 170 181 202 220 212 194 189 209 242 349 357 354 355 354 325 303 306 263 232 238 267 280 260 242 250 263 266 277 292 299 303 299 288 320 358 9 359 340 329 329 339 357 11 22 36 45 39 32 25 21 23 28 29 31 31 25 22 19 17 16 14 12 8 5 4 1 358 355 352 347 340 338 339 339 336 330 326 323 320 316 314 314
234 224 214 214 215 216 218 218 208 204 211 226 257 291 320 339 348 353 337 312 310 290 272 282 293 284 266 252 255 266 274 283 291 296 299 282 260 297 347 12 13 1 339 326 328 345 0 14 24 27 26 23 17 15 18 24 29 35 36 31 26 22 20 19 17 16 13 10 7 4 359 355 351 347 343 342 343 341 336 331 328 325 321 317 314 313
235 227 218 219 224 224 218 211 208 215 229 241 257 268 278 294 313 333 337 329 325 311 301 326 331 313 283 258 257 266 274 280 285 292 288 252 238 275 320 357 6 358 343 330 323 333 351 8 14 14 14 12 7 5 8 13 25 37 40 37 31 27 24 22 21 20 17 14 11 8 4 359 354 349 346 346 346 344 338 333 329 325 320 317 314 313
237 227 217 211 211 210 209 212 219 229 244 258 264 263 259 265 279 299 315 321 321 312 306 317 322 330 322 285 278 285 286 283 283 281 268 252 254 276 306 345 351 338 334 328 313 321 343 5 9 7 5 1 358 353 351 355 7 22 31 30 27 26 23 21 19 18 17 15 12 10 7 3 359 354 350 348 347 345 339 335 330 324 319 315 313 314
28 222 218 214 208 208 215 226 239 252 263 274 280 270 255 256 267 279 294 303 304 303 308 311 311 318 316 304 308 315 312 308 288 256 252 256 266 280 302 327 335 328 324 309 289 310 336 356 1 1 355 349 344 337 331 332 339 356 8 11 11 12 8 6 6 4 4 4 4 5 5 4 1 357 352 348 347 345 340 335 329 322 316 312 311 312
106 110 212 217 215 219 227 238 250 262 269 276 282 274 256 255 262 269 282 293 295 298 304 303 302 309 310 310 319 326 329 334 281 247 254 258 258 275 296 311 325 328 315 270 246 298 330 348 350 347 342 335 329 322 313 309 316 334 347 352 354 355 355 354 354 353 351 350 350 351 354 357 358 355 352 348 345 343 339 335 331 323 314 309 306 305
195 160 150 206 223 233 240 248 256 265 271 272 272 269 261 258 261 265 275 286 290 293 296 295 296 304 309 314 324 328 338 349 321 289 284 268 257 266 284 300 321 331 303 229 201 293 344 344 337 332 331 328 323 318 312 310 314 323 333 339 341 343 344 345 345 345 343 340 338 339 341 345 349 350 348 345 343 340 337 334 331 326 318 310 303 299
225 249 253 205 232 260 260 254 261 272 278 277 273 268 263 259 258 259 264 271 280 286 290 292 294 301 308 315 323 324 338 354 345 326 328 285 250 261 278 294 326 336 295 235 223 328 348 340 333 329 327 326 325 323 320 320 322 325 332 335 334 335 336 336 337 338 338 334 330 331 332 334 338 341 342 340 338 335 333 330 327 325 322 316 309 302
230 243 252 246 255 281 279 271 281 285 282 288 283 266 256 254 252 254 257 258 266 276 284 288 292 302 309 311 311 302 318 354 350 338 358 343 238 273 301 313 325 318 296 269 268 296 322 329 329 325 321 321 322 322 323 325 325 326 327 326 327 330 331 331 331 333 336 334 327 325 327 327 329 332 334 334 333 330 328 325 322 319 317 315 312 310
238 240 251 254 257 267 271 274 292 285 277 310 309 274 254 252 251 255 261 260 260 266 274 280 286 301 311 308 302 287 279 312 337 350 3 335 307 329 340 331 322 317 305 289 284 291 305 316 319 316 311 310 311 312 316 320 318 316 317 318 322 326 327 326 325 326 331 333 329 324 325 325 324 325 326 327 327 326 324 321 318 314 311 308 307 307
245 247 256 255 253 261 258 231 230 278 289 298 300 289 275 268 268 270 270 266 259 257 263 270 280 300 312 308 298 280 266 276 288 309 342 347 337 337 337 331 326 321 313 305 303 304 308 313 315 313 308 306 305 305 305 306 306 307 310 313 315 317 317 316 316 317 321 324 324 322 320 321 321 320 320 320 320 321 321 318 314 312 308 304 302 301
251 256 263 258 251 250 242 236 254 279 286 285 288 290 283 285 293 287 277 270 261 256 258 260 270 291 304 303 298 283 273 283 289 292 311 334 334 327 326 327 324 318 311 309 308 309 312 315 314 310 306 302 300 301 300 298 298 300 302 303 303 304 305 305 308 310 312 314 314 312 311 312 312 312 313 313 313 314 315 313 310 308 305 303 301 299
253 258 265 263 254 247 243 246 258 270 277 284 291 290 287 296 303 291 280 277 270 262 259 258 265 280 287 285 286 281 276 286 292 288 292 309 317 317 319 322 321 315 308 304 304 307 313 317 315 309 305 300 296 296 295 293 292 293 294 294 294 296 297 299 302 305 306 305 305 304 303 302 301 301 303 304 305 306 308 307 304 302 299 298 297 297
256 264 269 263 254 246 240 236 234 243 265 284 291 285 289 296 298 289 286 289 288 275 263 261 264 266 261 259 271 278 280 287 289 287 290 302 309 313 316 318 317 313 306 301 301 306 313 318 319 315 311 306 301 297 294 292 291 292 293 294 294 294 295 296 298 299 300 300 300 300 301 300 299 297 296 296 297 299 300 301 300 298 295 293 293 293
257 264 266 259 254 250 242 237 242 253 265 275 273 275 285 288 285 280 286 300 314 310 278 262 257 249 246 254 263 271 279 285 287 289 294 302 308 312 315 314 311 309 306 304 304 307 311 315 317 316 313 307 301 297 295 293 292 291 292 293 294 294 294 294 294 295 296 296 296 296 296 296 296 296 294 294 294 294 294 295 296 295 292 289 288 288
252 255 257 258 259 254 245 240 247 258 265 268 264 269 277 271 253 256 277 299 309 304 282 263 260 260 260 261 268 274 277 280 285 289 294 301 307 312 315 313 307 305 305 304 304 305 306 309 312 313 310 306 300 296 294 293 291 290 291 292 293 293 292 292 292 292 292 292 292 292 291 291 291 291 292 293 292 290 290 291 291 290 289 286 285 286
248 248 251 254 257 254 247 244 250 261 267 266 259 261 265 256 251 268 292 303 299 290 280 271 270 272 269 269 274 275 274 278 285 290 295 301 308 314 316 313 306 303 302 301 302 302 303 306 309 309 308 305 301 297 294 291 290 290 291 293 293 293 292 292 291 291 291 290 290 289 289 288 287 287 289 289 287 285 285 286 287 287 286 285 284 284
250 249 249 251 254 252 243 236 241 258 265 266 262 260 260 260 267 284 296 294 289 291 288 280 273 268 263 265 270 272 274 279 285 290 297 305 311 316 316 310 305 301 298 297 297 296 298 302 305 306 305 303 300 297 294 292 291 292 294 296 296 296 296 295 294 293 292 291 291 291 290 289 288 287 285 283 280 279 280 282 284 286 285 285 285 286
249 246 246 249 250 246 237 233 244 259 264 267 266 260 258 264 272 278 280 280 284 286 282 277 270 261 259 263 264 265 270 277 284 292 299 305 311 314 312 307 302 297 294 292 291 291 295 300 304 306 306 304 301 299 297 296 296 296 297 300 301 303 304 304 302 301 299 298 298 296 293 291 289 286 282 280 278 278 278 279 281 282 283 283 284 285
245 243 244 247 247 246 246 250 258 264 265 266 267 265 265 268 269 269 269 272 273 271 268 265 260 255 256 258 259 263 269 277 286 292 296 300 306 309 306 301 296 292 290 290 290 293 298 302 305 307 306 305 304 303 302 301 301 301 303 306 308 310 310 309 308 305 303 301 300 297 296 296 294 287 281 280 280 280 280 280 280 281 282 283 283 283
245 245 246 248 249 250 253 256 258 261 263 264 265 265 266 267 267 266 264 261 258 258 257 256 256 257 257 257 259 264 271 279 286 290 293 296 299 299 297 294 290 288 288 288 291 296 300 303 305 305 305 305 305 305 305 304 304 305 307 309 309 310 311 310 308 305 301 296 292 291 294 299 299 292 284 281 282 282 281 279 278 279 280 282 283 283
246 246 246 248 249 252 255 257 257 258 258 259 260 262 262 260 258 256 253 248 246 247 251 257 262 263 261 260 263 268 274 281 285 287 287 288 289 289 288 286 284 284 286 289 293 297 300 301 303 302 303 304 306 306 307 307 306 306 307 307 308 309 312 312 308 306 302 293 285 285 290 295 300 297 288 283 284 285 284 282 281 280 280 280 281 281
243 245 247 247 248 249 251 253 253 253 253 255 256 257 255 251 248 247 245 244 245 249 254 259 261 263 266 268 268 270 273 276 276 277 278 280 281 281 280 279 280 284 288 292 295 298 300 301 302 302 303 306 308 309 310 308 307 305 304 305 308 311 313 312 309 308 307 297 286 284 286 291 297 298 290 284 284 285 286 287 286 286 285 283 282 281
241 246 249 251 250 249 250 250 249 248 248 249 249 249 247 244 241 240 239 241 247 252 255 257 261 267 271 270 265 264 267 271 273 274 276 276 276 277 278 281 285 289 293 296 298 299 300 301 302 303 304 307 310 311 310 308 307 306 305 308 311 312 312 311 310 311 312 307 298 292 288 289 293 296 294 289 287 286 287 287 287 288 287 285 282 280
245 248 251 253 253 251 251 252 251 249 248 247 248 250 250 248 247 247 249 253 257 260 263 265 268 270 268 265 265 269 274 278 278 277 277 278 280 282 285 288 291 292 294 296 297 299 300 301 301 302 303 305 307 308 308 307 307 307 308 310 311 312 311 311 311 313 314 312 307 302 297 294 293 294 293 292 290 291 290 290 291 289 285 281 279 277
250 251 253 256 257 256 256 256 257 255 255 255 257 259 261 260 259 258 261 265 269 273 276 277 276 274 272 272 275 279 280 278 275 276 278 282 284 285 285 286 287 289 291 293 294 295 296 296 297 299 300 302 305 306 307 308 308 308 309 310 311 311 310 309 309 311 311 309 306 302 299 296 294 293 292 291 290 290 290 291 291 288 283 282 284 282
Height
3149 3149 3149 3150 3149 3149 3149 3149 3149 3149 3149 3149 3149 3149 3149 3149 3149 3149 3150 3150 3151 3151 3151 3151 3151 3151 3152 3152 3151 3151 3151 3150 3150 3149 3148 3148 3147 3146 3146 3145 3145 3144 3144 3144 3143 3143 3143 3142 3142 3141 3141 3141 3140 3139 3138 3138 3137 3137 3136 3135 3134 3133 3132 3132 3131 3131 3130 3129 3129 3129 3128 3128 3127 3126 3125 3124 3123 3122 3121 3120 3118 3117 3116 3115 3114 3112
3149 3149 3150 3150 3150 3149 3149 3149 3149 3149 3149 3149 3149 3149 3149 3149 3149 3150 3150 3150 3151 3151 3151 3151 3151 3151 3152 3152 3152 3151 3151 3151 3150 3150 3149 3148 3148 3147 3147 3146 3146 3145 3145 3144 3143 3143 3143 3142 3142 3142 3141 3141 3140 3139 3138 3138 3137 3137 3136 3135 3135 3134 3133 3132 3132 3131 3131 3130 3130 3129 3129 3128 3128 3127 3126 3125 3124 3122 3121 3120 3119 3117 3116 3115 3114 3113
3149 3149 3150 3150 3150 3150 3149 3149 3149 3149 3149 3148 3149 3149 3149 3149 3149 3149 3150 3150 3151 3151 3151 3151 3151 3151 3151 3152 3152 3151 3151 3151 3151 3150 3150 3149 3148 3148 3147 3147 3146 3146 3145 3144 3144 3143 3143 3142 3142 3141 3141 3140 3139 3139 3138 3138 3137 3137 3136 3136 3135 3134 3133 3133 3132 3132 3131 3131 3130 3130 3129 3129 3128 3127 3126 3125 3124 3123 3122 3120 3119 3118 3117 3116 3115 3113
3150 3150 3150 3150 3149 3149 3149 3149 3149 3148 3148 3148 3149 3149 3149 3149 3149 3150 3150 3150 3151 3151 3152 3152 3152 3152 3152 3152 3152 3152 3151 3151 3151 3151 3150 3150 3149 3149 3148 3147 3147 3146 3146 3145 3144 3143 3142 3142 3142 3141 3141 3140 3139 3138 3138 3137 3137 3137 3136 3136 3135 3135 3134 3133 3133 3132 3131 3131 3130 3130 3129 3129 3128 3128 3127 3126 3125 3123 3122 3121 3120 3119 3117 3116 3115 3114
3150 3150 3150 3149 3149 3149 3149 3149 3148 3148 3148 3148 3148 3149 3149 3150 3150 3150 3150 3151 3151 3152 3152 3152 3152 3152 3152 3152 3152 3152 3151 3151 3151 3151 3150 3150 3150 3149 3148 3148 3147 3147 3146 3146 3145 3144 3142 3142 3141 3141 3141 3140 3139 3138 3138 3137 3137 3137 3136 3136 3136 3135 3134 3134 3133 3132 3132 3131 3130 3130 3129 3129 3128 3128 3127 3126 3125 3124 3122 3122 3121 3119 3118 3117 3116 3115
3150 3150 3150 3150 3149 3149 3149 3149 3148 3148 3148 3148 3149 3149 3150 3150 3151 3151 3151 3151 3151 3152 3152 3153 3153 3152 3152 3152 3152 3152 3151 3151 3151 3151 3151 3150 3150 3150 3149 3148 3148 3147 3146 3146 3145 3144 3143 3142 3141 3141 3141 3140 3139 3138 3138 3137 3137 3137 3137 3136 3136 3135 3135 3134 3133 3133 3132 3132 3131 3130 3130 3129 3128 3128 3127 3126 3125 3124 3123 3122 3121 3120 3119 3118 3117 3116
3151 3151 3151 3150 3150 3150 3150 3150 3149 3149 3149 3149 3150 3150 3150 3151 3151 3151 3151 3151 3152 3152 3152 3154 3154 3153 3152 3152 3152 3152 3152 3151 3151 3151 3151 3150 3150 3150 3149 3148 3148 3147 3147 3146 3145 3144 3143 3142 3141 3141 3140 3139 3139 3138 3138 3138 3137 3137 3137 3137 3136 3136 3135 3134 3134 3133 3133 3132 3131 3131 3130 3129 3128 3128 3127 3126 3125 3124 3123 3122 3121 3120 3119 3119 3118 3117
3151 3151 3151 3151 3151 3151 3151 3151 3150 3150 3150 3150 3151 3151 3151 3151 3151 3151 3151 3151 3152 3152 3152 3153 3154 3154 3153 3152 3153 3152 3152 3152 3151 3151 3151 3151 3150 3150 3149 3149 3148 3148 3147 3146 3146 3145 3144 3143 3142 3141 3140 3139 3138 3138 3138 3138 3137 3137 3137 3137 3136 3136 3135 3135 3134 3134 3133 3132 3132 3131 3130 3129 3129 3128 3127 3126 3126 3125 3124 3122 3121 3120 3119 3119 3118 3117
3151 3151 3151 3151 3152 3152 3151 3151 3151 3151 3150 3151 3151 3151 3151 3151 3151 3151 3151 3151 3152 3152 3152 3153 3154 3155 3154 3153 3153 3153 3152 3152 3152 3151 3151 3151 3150 3150 3150 3149 3148 3148 3147 3146 3146 3145 3144 3143 3142 3141 3140 3139 3138 3138 3138 3138 3137 3137 3137 3137 3137 3136 3136 3135 3135 3134 3134 3133 3132 3131 3130 3130 3129 3128 3127 3127 3126 3125 3124 3123 3122 3121 3120 3119 3118 3117
3151 3151 3151 3151 3152 3152 3151 3151 3150 3150 3150 3151 3151 3151 3151 3151 3151 3151 3151 3151 3152 3153 3152 3153 3154 3156 3155 3153 3153 3153 3153 3153 3152 3151 3151 3151 3151 3150 3150 3149 3148 3148 3147 3146 3146 3145 3144 3143 3142 3141 3140 3139 3138 3138 3138 3137 3137 3137 3137 3137 3137 3136 3136 3136 3135 3135 3134 3133 3132 3131 3130 3130 3129 3128 3127 3127 3126 3125 3124 3123 3122 3121 3120 3119 3118 3117
3151 3151 3151 3151 3152 3152 3151 3151 3150 3150 3150 3150 3151 3151 3151 3151 3150 3151 3151 3152 3154 3154 3152 3152 3153 3155 3155 3154 3153 3154 3154 3154 3153 3152 3152 3152 3151 3151 3150 3149 3149 3148 3147 3146 3145 3145 3144 3143 3142 3141 3140 3139 3138 3138 3138 3137 3137 3137 3137 3137 3137 3136 3136 3136 3135 3135 3134 3133 3132 3132 3131 3130 3129 3128 3127 3127 3126 3125 3124 3124 3123 3122 3121 3120 3118 3117
3151 3151 3151 3152 3152 3152 3151 3151 3150 3150 3150 3150 3150 3150 3150 3151 3151 3151 3152 3153 3154 3154 3153 3152 3153 3155 3156 3154 3154 3155 3154 3154 3153 3153 3152 3152 3152 3151 3150 3150 3149 3148 3147 3146 3145 3145 3144 3143 3142 3141 3140 3139 3138 3138 3138 3137 3137 3137 3137 3137 3137 3136 3136 3135 3135 3134 3134 3133 3132 3132 3131 3130 3129 3128 3128 3127 3126 3125 3125 3124 3123 3122 3121 3120 3119 3118
3151 3151 3151 3152 3152 3151 3151 3151 3151 3151 3151 3150 3150 3150 3150 3151 3152 3152 3154 3155 3154 3154 3153 3152 3154 3155 3155 3154 3154 3155 3154 3154 3153 3153 3153 3152 3152 3151 3151 3150 3149 3148 3147 3146 3145 3145 3144 3143 3142 3141 3140 3139 3139 3138 3137 3137 3137 3137 3137 3137 3136 3136 3136 3135 3135 3134 3134 3133 3133 3132 3131 3130 3130 3129 3128 3127 3126 3126 3125 3124 3123 3122 3122 3121 3120 3118
3151 3152 3152 3152 3152 3151 3151 3151 3151 3151 3151 3150 3150 3150 3150 3151 3153 3155 3156 3156 3154 3154 3154 3154 3154 3155 3154 3154 3154 3154 3154 3154 3153 3153 3153 3152 3152 3151 3150 3150 3149 3148 3147 3146 3145 3145 3144 3143 3142 3142 3141 3140 3139 3138 3137 3137 3137 3137 3137 3137 3136 3136 3135 3135 3135 3134 3134 3133 3133 3132 3131 3131 3130 3129 3128 3127 3126 3126 3125 3125 3124 3123 3122 3121 3120 3119
3152 3152 3152 3152 3152 3151 3151 3151 3151 3151 3151 3150 3150 3150 3150 3151 3152 3154 3154 3154 3153 3153 3154 3154 3154 3154 3153 3154 3154 3154 3154 3154 3154 3153 3153 3153 3152 3151 3150 3150 3149 3148 3147 3146 3145 3145 3144 3143 3143 3142 3141 3141 3140 3139 3138 3137 3137 3137 3136 3136 3136 3136 3135 3135 3134 3134 3134 3133 3133 3132 3131 3130 3129 3128 3128 3127 3126 3125 3125 3124 3124 3123 3122 3121 3120 3119
3152 3152 3152 3152 3152 3151 3151 3151 3151 3151 3151 3151 3151 3150 3150 3151 3151 3152 3153 3153 3153 3153 3154 3154 3153 3153 3153 3153 3154 3154 3154 3154 3154 3153 3153 3153 3152 3151 3150 3150 3149 3148 3148 3147 3146 3145 3144 3144 3143 3143 3142 3141 3140 3139 3139 3138 3137 3137 3136 3136 3136 3135 3135 3134 3134 3134 3133 3133 3132 3132 3131 3130 3129 3128 3127 3127 3126 3125 3124 3124 3123 3123 3122 3121 3121 3120
3151 3152 3152 3152 3152 3152 3151 3151 3152 3151 3151 3151 3151 3151 3151 3151 3151 3151 3152 3153 3153 3153 3154 3154 3153 3153 3153 3153 3153 3154 3154 3154 3154 3153 3153 3153 3152 3151 3150 3150 3149 3149 3148 3147 3146 3145 3145 3144 3143 3143 3142 3142 3141 3140 3139 3138 3138 3137 3137 3136 3136 3135 3135 3134 3134 3133 3133 3133 3132 3131 3131 3130 3129 3128 3127 3126 3125 3124 3124 3123 3123 3122 3122 3121 3121 3120
3151 3152 3152 3153 3152 3152 3152 3152 3152 3152 3152 3152 3151 3151 3151 3151 3151 3151 3151 3153 3154 3154 3154 3153 3153 3153 3153 3153 3153 3154 3154 3154 3154 3153 3153 3153 3152 3151 3151 3150 3149 3149 3148 3147 3146 3145 3145 3144 3144 3143 3142 3142 3141 3140 3140 3139 3138 3138 3137 3136 3136 3135 3135 3134 3134 3133 3133 3132 3131 3131 3130 3129 3129 3128 3127 3126 3125 3124 3123 3123 3122 3122 3121 3121 3120 3120
3151 3151 3152 3152 3153 3153 3152 3153 3153 3152 3152 3152 3152 3152 3151 3151 3151 3151 3151 3153 3154 3155 3155 3153 3153 3153 3152 3152 3153 3153 3154 3154 3154 3153 3153 3153 3152 3151 3151 3150 3149 3148 3148 3147 3146 3145 3145 3144 3144 3143 3143 3142 3141 3141 3140 3139 3139 3138 3137 3137 3136 3136 3135 3134 3133 3133 3132 3131 3131 3130 3130 3129 3128 3127 3127 3126 3125 3124 3123 3122 3122 3121 3121 3120 3119 3119
3151 3151 3152 3152 3152 3153 3153 3153 3153 3153 3152 3152 3152 3152 3152 3151 3151 3151 3152 3152 3153 3156 3157 3154 3152 3152 3151 3152 3153 3153 3153 3153 3153 3153 3152 3152 3152 3151 3150 3150 3149 3148 3147 3146 3145 3145 3145 3144 3143 3143 3143 3142 3142 3141 3140 3140 3139 3138 3138 3137 3136 3135 3135 3134 3133 3132 3132 3131 3130 3130 3129 3129 3128 3127 3126 3125 3125 3124 3123 3122 3121 3120 3120 3119 3118 3117
3151 3151 3151 3152 3152 3153 3153 3153 3153 3153 3152 3152 3152 3152 3152 3152 3152 3152 3152 3153 3153 3155 3156 3155 3153 3151 3151 3151 3152 3152 3152 3152 3152 3152 3152 3152 3151 3151 3150 3150 3149 3148 3147 3146 3145 3144 3144 3144 3143 3143 3143 3142 3142 3141 3141 3140 3139 3138 3138 3137 3136 3135 3134 3134 3133 3132 3132 3131 3130 3130 3129 3128 3128 3127 3126 3125 3124 3124 3123 3122 3121 3120 3119 3118 3117 3116
3151 3151 3151 3152 3152 3153 3153 3153 3153 3153 3153 3152 3152 3152 3152 3152 3152 3152 3153 3153 3153 3153 3154 3155 3153 3150 3150 3151 3151 3151 3151 3151 3151 3151 3151 3151 3151 3151 3150 3150 3149 3148 3148 3147 3146 3145 3144 3143 3143 3143 3143 3142 3142 3141 3141 3140 3139 3138 3137 3137 3136 3135 3134 3134 3133 3132 3132 3131 3130 3130 3129 3128 3127 3126 3126 3125 3124 3123 3122 3121 3120 3119 3118 3117 3116 3115
3151 3151 3151 3152 3152 3153 3153 3153 3153 3153 3153 3153 3153 3153 3153 3152 3152 3153 3153 3153 3153 3153 3153 3153 3152 3150 3150 3150 3150 3151 3150 3150 3150 3150 3150 3150 3150 3151 3150 3149 3149 3148 3148 3147 3146 3145 3144 3143 3143 3143 3143 3142 3142 3141 3140 3140 3139 3138 3137 3137 3136 3135 3134 3134 3133 3132 3132 3131 3130 3129 3129 3128 3127 3126 3125 3124 3123 3122 3121 3120 3119 3118 3117 3116 3115 3114
3150 3151 3151 3151 3152 3152 3153 3153 3153 3153 3153 3153 3153 3153 3153 3153 3153 3153 3153 3153 3153 3153 3153 3153 3152 3150 3149 3150 3150 3150 3150 3150 3150 3149 3149 3149 3150 3150 3150 3149 3149 3148 3148 3147 3146 3145 3144 3143 3143 3143 3143 3142 3142 3141 3140 3140 3139 3138 3137 3137 3136 3135 3134 3134 3133 3132 3131 3131 3130 3129 3128 3127 3126 3125 3124 3123 3122 3121 3120 3119 3118 3117 3116 3115 3114 3114
3149 3150 3150 3151 3152 3153 3153 3153 3153 3152 3153 3153 3153 3153 3153 3153 3153 3153 3153 3152 3152 3152 3152 3152 3151 3149 3149 3149 3149 3149 3149 3149 3149 3149 3149 3149 3149 3149 3149 3148 3148 3148 3147 3146 3146 3145 3144 3144 3143 3143 3143 3142 3142 3141 3140 3140 3139 3138 3137 3137 3136 3135 3134 3133 3133 3132 3131 3130 3129 3128 3127 3126 3125 3124 3123 3122 3121 3120 3119 3118 3117 3116 3115 3114 3113 3113
3148 3149 3149 3149 3150 3152 3152 3152 3151 3151 3152 3152 3153 3153 3152 3152 3152 3152 3152 3152 3151 3151 3151 3151 3150 3149 3149 3149 3148 3148 3148 3148 3148 3148 3148 3148 3148 3148 3148 3147 3147 3147 3147 3146 3145 3145 3144 3144 3143 3143 3142 3142 3141 3141 3140 3140 3139 3138 3137 3137 3136 3135 3134 3133 3132 3131 3130 3129 3128 3127 3127 3126 3125 3124 3123 3122 3120 3119 3118 3117 3116 3115 3114 3113 3112 3111
3148 3148 3148 3148 3149 3149 3150 3150 3150 3150 3151 3151 3152 3152 3152 3152 3152 3152 3151 3151 3150 3150 3150 3150 3149 3149 3148 3148 3148 3148 3147 3147 3147 3146 3146 3146 3147 3147 3147 3146 3146 3146 3146 3145 3145 3145 3144 3143 3143 3142 3142 3142 3141 3141 3140 3140 3139 3138 3138 3137 3136 3135 3134 3133 3132 3131 3130 3129 3128 3127 3126 3125 3124 3123 3122 3121 3119 3118 3117 3116 3115 3114 3113 3112 3111 3110
3147 3147 3148 3148 3148 3148 3149 3149 3149 3150 3150 3151 3151 3151 3151 3151 3151 3151 3150 3150 3150 3149 3149 3149 3149 3148 3148 3147 3147 3147 3146 3146 3145 3145 3145 3145 3145 3146 3146 3146 3145 3145 3145 3145 3145 3144 3144 3143 3143 3142 3142 3141 3141 3141 3140 3140 3139 3139 3138 3137 3137 3136 3135 3134 3133 3132 3131 3130 3128 3127 3126 3125 3124 3122 3121 3120 3118 3117 3116 3115 3114 3112 3111 3110 3109 3109
3147 3147 3147 3148 3148 3148 3148 3148 3149 3149 3149 3150 3150 3150 3150 3150 3150 3150 3150 3149 3149 3149 3149 3148 3148 3147 3147 3146 3146 3146 3145 3145 3144 3144 3144 3144 3144 3145 3145 3145 3145 3145 3144 3144 3144 3144 3143 3143 3142 3142 3142 3141 3141 3140 3140 3139 3139 3138 3138 3137 3137 3136 3135 3134 3133 3132 3131 3130 3129 3127 3126 3124 3123 3122 3120 3119 3118 3116 3115 3114 3112 3111 3110 3109 3108 3107
3147 3147 3147 3147 3148 3148 3148 3148 3148 3148 3149 3149 3148 3149 3149 3149 3149 3149 3149 3148 3148 3148 3148 3147 3147 3146 3146 3145 3145 3145 3144 3143 3143 3144 3144 3144 3144 3144 3144 3144 3144 3144 3144 3143 3143 3143 3143 3142 3142 3142 3141 3141 3140 3140 3139 3139 3138 3138 3137 3137 3136 3135 3135 3134 3133 3132 3131 3130 3128 3127 3126 3124 3123 3121 3120 3118 3117 3116 3115 3113 3112 3111 3109 3108 3107 3106
3146 3147 3147 3147 3147 3148 3148 3148 3148 3148 3147 3147 3147 3147 3147 3147 3148 3148 3147 3147 3147 3147 3147 3147 3146 3145 3145 3145 3144 3144 3143 3143 3143 3143 3143 3143 3143 3143 3144 3144 3144 3143 3143 3142 3142 3142 3142 3142 3141 3141 3141 3140 3140 3139 3139 3138 3138 3137 3137 3136 3136 3135 3134 3133 3132 3131 3130 3129 3128 3127 3125 3124 3122 3121 3119 3118 3116 3115 3114 3113 3111 3110 3109 3107 3106 3105
3146 3147 3147 3147 3147 3147 3147 3147 3147 3147 3146 3146 3146 3146 3146 3146 3146 3146 3146 3146 3146 3146 3146 3146 3145 3145 3144 3144 3144 3143 3143 3143 3143 3143 3142 3142 3143 3143 3143 3143 3143 3142 3142 3141 3141 3141 3141 3141 3141 3140 3140 3139 3139 3138 3138 3138 3137 3137 3136 3136 3135 3134 3133 3132 3131 3130 3129 3128 3127 3126 3124 3123 3121 3120 3118 3117 3115 3114 3113 3112 3110 3109 3108 3107 3105 3104
3146 3146 3146 3147 3147 3146 3146 3146 3146 3146 3145 3144 3144 3144 3144 3145 3145 3145 3145 3145 3145 3145 3145 3144 3144 3144 3144 3143 3143 3143 3143 3142 3142 3142 3142 3142 3142 3142 3143 3143 3142 3142 3141 3141 3141 3141 3140 3140 3140 3139 3139 3138 3138 3137 3137 3137 3136 3136 3135 3135 3134 3133 3132 3131 3131 3130 3128 3127 3126 3124 3123 3122 3120 3119 3118 3116 3115 3113 3112 3111 3109 3108 3107 3106 3104 3103
3145 3145 3146 3146 3146 3146 3146 3146 3145 3146 3145 3143 3142 3143 3143 3143 3144 3144 3144 3144 3144 3144 3144 3144 3143 3143 3143 3143 3143 3143 3143 3142 3142 3142 3142 3142 3142 3142 3142 3142 3142 3141 3141 3141 3140 3140 3140 3139 3139 3138 3138 3137 3137 3136 3136 3136 3135 3135 3134 3134 3133 3132 3131 3130 3129 3128 3127 3126 3124 3123 3122 3120 3119 3118 3117 3115 3114 3112 3111 3110 3108 3107 3105 3104 3103 3102
3144 3145 3145 3145 3145 3145 3145 3145 3146 3145 3143 3142 3142 3142 3143 3143 3143 3142 3142 3142 3142 3142 3143 3143 3143 3143 3142 3142 3142 3142 3142 3142 3142 3142 3142 3141 3141 3141 3141 3141 3141 3141 3140 3140 3140 3139 3139 3139 3138 3137 3137 3136 3136 3135 3135 3134 3134 3133 3133 3132 3131 3130 3130 3129 3128 3127 3125 3124 3123 3122 3120 3119 3118 3117 3115 3114 3112 3111 3109 3108 3107 3105 3104 3103 3101 3100
3143 3143 3144 3144 3144 3144 3144 3145 3145 3143 3141 3141 3142 3142 3142 3142 3142 3141 3140 3141 3141 3141 3141 3142 3142 3142 3141 3141 3141 3141 3142 3142 3141 3141 3141 3141 3141 3141 3141 3140 3140 3140 3139 3139 3139 3138 3138 3137 3137 3136 3136 3135 3135 3134 3134 3133 3132 3131 3131 3130 3129 3128 3127 3126 3125 3124 3123 3122 3121 3120 3119 3117 3116 3114 3113 3112 3111 3109 3108 3106 3105 3104 3102 3101 3099 3098
3142 3142 3142 3142 3142 3142 3142 3142 3142 3141 3140 3140 3140 3141 3141 3141 3140 3140 3139 3139 3139 3139 3140 3140 3140 3140 3140 3140 3140 3140 3141 3141 3141 3141 3141 3141 3140 3140 3140 3139 3139 3139 3138 3138 3137 3137 3136 3136 3135 3135 3134 3134 3133 3132 3132 3131 3130 3129 3129 3128 3127 3126 3125 3124 3123 3122 3121 3120 3119 3118 3116 3115 3113 3112 3111 3109 3108 3107 3106 3104 3103 3101 3100 3098 3097 3096
3140 3140 3140 3141 3140 3140 3141 3141 3141 3140 3138 3137 3139 3139 3139 3139 3139 3138 3137 3137 3137 3138 3138 3138 3139 3139 3139 3139 3139 3139 3139 3140 3140 3140 3140 3140 3139 3139 3139 3138 3138 3137 3137 3136 3136 3136 3135 3135 3134 3133 3133 3132 3131 3130 3130 3129 3128 3127 3126 3125 3124 3123 3122 3121 3120 3119 3118 3117 3116 3114 3113 3112 3110 3109 3107 3106 3105 3104 3102 3101 3100 3099 3097 3095 3094 3093
3138 3138 3138 3138 3138 3138 3139 3138 3138 3137 3136 3136 3137 3138 3138 3138 3138 3137 3136 3135 3135 3136 3136 3137 3137 3138 3138 3138 3138 3138 3138 3138 3138 3138 3138 3138 3138 3138 3137 3137 3136 3136 3136 3135 3135 3134 3134 3133 3132 3131 3131 3130 3130 3129 3128 3127 3126 3125 3124 3123 3122 3121 3120 3118 3117 3116 3115 3113 3112 3111 3109 3108 3106 3105 3104 3102 3101 3100 3099 3098 3096 3095 3094 3092 3090 3089
3135 3136 3136 3136 3135 3135 3136 3136 3135 3134 3134 3135 3136 3136 3136 3136 3136 3136 3136 3134 3134 3134 3135 3135 3136 3136 3136 3137 3137 3137 3137 3137 3137 3137 3137 3137 3137 3136 3136 3135 3135 3135 3134 3134 3133 3133 3132 3132 3131 3130 3129 3128 3127 3127 3126 3125 3124 3123 3122 3121 3120 3118 3117 3115 3114 3112 3111 3110 3108 3107 3106 3104 3102 3101 3099 3098 3096 3095 3094 3093 3092 3091 3090 3088 3087 3085
3133 3133 3133 3133 3133 3133 3133 3133 3132 3131 3132 3133 3134 3134 3135 3135 3135 3134 3134 3133 3133 3133 3134 3134 3135 3135 3135 3135 3135 3135 3135 3135 3135 3136 3136 3136 3135 3135 3135 3134 3133 3133 3133 3133 3132 3132 3131 3130 3129 3128 3127 3126 3125 3124 3123 3122 3121 3120 3119 3118 3117 3115 3113 3111 3110 3108 3107 3105 3104 3103 3101 3100 3098 3096 3095 3093 3091 3090 3089 3088 3087 3086 3085 3084 3082 3081
3130 3130 3130 3130 3130 3130 3130 3130 3130 3129 3129 3131 3132 3132 3132 3133 3132 3131 3131 3132 3132 3132 3132 3133 3133 3133 3133 3134 3134 3134 3134 3134 3134 3134 3134 3134 3134 3134 3133 3132 3132 3132 3131 3131 3130 3130 3129 3128 3127 3126 3124 3123 3122 3121 3120 3119 3118 3117 3116 3115 3113 3111 3109 3107 3105 3103 3102 3100 3099 3097 3096 3095 3093 3092 3090 3088 3086 3084 3083 3083 3082 3081 3080 3078 3077 3076
3127 3127 3127 3127 3127 3127 3127 3128 3128 3127 3126 3128 3129 3129 3130 3130 3129 3129 3130 3130 3130 3130 3131 3131 3131 3131 3132 3132 3132 3132 3132 3132 3133 3133 3133 3132 3132 3132 3131 3131 3130 3130 3129 3129 3128 3128 3127 3126 3125 3124 3122 3121 3120 3118 3117 3116 3114 3113 3112 3110 3108 3106 3105 3103 3101 3099 3097 3095 3093 3092 3090 3089 3088 3086 3084 3083 3081 3079 3078 3077 3077 3075 3074 3073 3072 3071
3124 3124 3123 3124 3124 3124 3123 3124 3124 3124 3125 3126 3126 3127 3127 3127 3127 3128 3128 3128 3128 3128 3129 3129 3129 3130 3130 3130 3131 3131 3130 3131 3131 3131 3131 3130 3130 3130 3129 3129 3128 3128 3127 3127 3126 3125 3124 3123 3122 3121 3120 3118 3116 3114 3113 3111 3110 3109 3107 3106 3104 3102 3100 3098 3096 3093 3091 3089 3087 3085 3084 3083 3082 3080 3078 3077 3075 3073 3073 3072 3071 3070 3069 3068 3067 3066
3120 3120 3121 3121 3121 3121 3120 3120 3121 3122 3123 3123 3124 3124 3125 3125 3125 3126 3126 3126 3126 3126 3126 3127 3127 3128 3128 3128 3129 3129 3129 3129 3129 3129 3128 3128 3128 3127 3127 3126 3126 3125 3125 3124 3123 3122 3121 3119 3118 3117 3116 3114 3112 3110 3108 3107 3105 3104 3102 3100 3098 3096 3094 3092 3089 3087 3084 3082 3080 3078 3076 3076 3076 3074 3072 3071 3070 3069 3068 3066 3065 3065 3065 3063 3062 3061
3118 3118 3118 3118 3119 3118 3118 3118 3119 3120 3120 3121 3121 3122 3122 3122 3122 3123 3123 3123 3124 3124 3124 3125 3125 3126 3126 3126 3126 3126 3127 3126 3126 3126 3126 3126 3125 3125 3124 3124 3123 3122 3121 3120 3119 3118 3117 3115 3114 3113 3111 3110 3108 3107 3105 3103 3101 3099 3097 3095 3093 3091 3089 3086 3083 3080 3078 3075 3074 3072 3070 3070 3070 3069 3067 3066 3065 3063 3062 3061 3060 3060 3059 3058 3057 3056
3116 3116 3117 3116 3116 3116 3116 3116 3117 3118 3118 3118 3118 3119 3119 3120 3120 3120 3120 3121 3121 3121 3122 3122 3123 3123 3124 3124 3124 3124 3124 3124 3123 3123 3123 3123 3122 3122 3121 3120 3120 3119 3118 3117 3115 3114 3113 3112 3110 3109 3107 3106 3104 3103 3101 3099 3097 3095 3092 3090 3087 3085 3082 3079 3076 3073 3070 3068 3068 3067 3066 3065 3065 3064 3063 3061 3060 3059 3057 3056 3055 3054 3053 3053 3052 3051
3114 3115 3115 3114 3114 3114 3114 3114 3115 3115 3115 3116 3116 3116 3116 3117 3117 3117 3118 3118 3118 3119 3119 3120 3121 3121 3121 3122 3122 3122 3121 3121 3121 3121 3120 3120 3119 3119 3118 3117 3115 3115 3114 3113 3112 3110 3109 3108 3106 3105 3103 3101 3100 3098 3096 3094 3092 3090 3088 3085 3082 3079 3076 3073 3069 3066 3064 3063 3062 3062 3061 3061 3060 3059 3058 3057 3055 3054 3053 3052 3051 3049 3048 3047 3046 3045
3112 3113 3113 3112 3112 3113 3113 3112 3113 3113 3113 3114 3114 3114 3114 3114 3115 3115 3115 3116 3116 3116 3117 3117 3118 3118 3118 3118 3118 3118 3118 3118 3118 3118 3117 3116 3116 3115 3114 3113 3112 3111 3110 3109 3108 3106 3105 3103 3102 3100 3099 3097 3095 3094 3092 3090 3088 3085 3083 3080 3078 3074 3071 3068 3065 3062 3061 3059 3058 3058 3057 3056 3056 3054 3053 3052 3051 3050 3048 3047 3046 3045 3044 3042 3041 3039
3111 3110 3110 3110 3111 3111 3111 3110 3111 3111 3111 3112 3112 3111 3112 3112 3113 3113 3113 3113 3113 3114 3114 3114 3115 3115 3115 3115 3115 3115 3115 3115 3115 3114 3113 3112 3112 3111 3110 3109 3108 3107 3106 3105 3103 3102 3100 3099 3098 3096 3095 3093 3091 3090 3088 3086 3083 3081 3078 3075 3072 3069 3066 3064 3062 3060 3058 3057 3056 3055 3054 3053 3052 3051 3049 3048 3047 3045 3044 3043 3042 3040 3039 3037 3036 3034
3108 3108 3108 3108 3108 3108 3108 3108 3108 3109 3109 3109 3109 3109 3110 3110 3110 3111 3111 3111 3111 3111 3111 3111 3112 3112 3112 3112 3112 3112 3111 3111 3111 3110 3109 3108 3107 3107 3106 3105 3104 3103 3102 3101 3099 3098 3096 3095 3094 3092 3091 3089 3087 3085 3083 3081 3079 3076 3073 3070 3067 3064 3062 3060 3059 3057 3056 3054 3053 3052 3051 3050 3048 3047 3045 3044 3042 3041 3040 3039 3038 3036 3034 3033 3032 3030